Regional Weather Roundup
Issued by NWS Charleston, SC

Current Version | Previous Version | Text Only | Print | Product List | Glossary Off
Versions: 1 2 3 4 5 6 7 8 9 10 11 12 13 14 15 16 17 18 19 20 21 22 23 24 25 26 27 28 29 30 31 32 33 34 35 36 37 38 39 40 41 42 43 44 45 46 47 48 49 50
000 ASUS42 KCHS 010210 RWRCHS REGIONAL WEATHER ROUNDUP NATIONAL WEATHER SERVICE CHARLESTON SC 1000 PM EDT TUE SEP 30 2014 NOTE: "FAIR" INDICATES FEW OR NO CLOUDS BELOW 12,000 FEET WITH NO SIGNIFICANT WEATHER AND/OR OBSTRUCTIONS TO VISIBILITY. NOT ALL STATIONS ARE QUALITY CONTROLLED BY THE NATIONAL WEATHER SERVICE. USE DATA WITH CAUTION...ESPECIALLY DEWPOINT OBSERVATIONS. SCZ027-030-031-034>040-042>050-010300- ...SOUTH CAROLINA... CITY SKY/WX TMP DP RH WIND PRES REMARKS N CHARLESTON CLEAR 70 65 84 S5 29.90R WATERFRONT PRK N/A 72 N/A N/A W5 N/A FORT JOHNSON NOT AVBL MOUNT PLEASANT FAIR 68 66 94 CALM 29.90R JOHNS ISLAND CLEAR 70 70 100 CALM 29.90R PINOPOLIS N/A 75 68 78 MISG 29.82R MONCKS CORNER FAIR 68 68 100 CALM 29.90R SUMMERVILLE FAIR 68 68 100 CALM 29.91R BEAUFORT MCAS CLEAR 69 66 90 SW3 29.90R BEAUFORT ARPT FAIR 68 68 100 CALM 29.90R HILTON HEAD IS CLEAR 68 66 94 CALM 29.92R GEORGETOWN NOT AVBL WALTERBORO CLEAR 68 N/A N/A CALM 29.91R ORANGEBURG CLEAR 67 64 90 CALM 29.91R BARNWELL FAIR 68 66 94 CALM 29.92R AIKEN FAIR 66 66 100 CALM 29.95S MANNING FAIR 66 N/A N/A CALM 29.90S KINGSTREE NOT AVBL COLUMBIA CLEAR 69 63 81 CALM 29.90R SUMTER CLEAR 67 63 85 CALM 29.89R FLORENCE CLEAR 67 63 87 CALM 29.90R MYRTLE BEACH CLEAR 70 64 83 N5 29.88 N MYRTLE BEACH PTCLDY 68 65 90 CALM 29.89R $$ GAZ063-065-086>088-099>101-113>116-118-119-134-136>141-150-010300- ...GEORGIA... CITY SKY/WX TMP DP RH WIND PRES REMARKS SAVANNAH ARPT CLEAR 71 66 84 CALM 29.91R HUNTER AAF CLEAR 69 68 97 VRB1 29.89R FORT STEWART CLEAR 70 68 93 CALM 29.90R STATESBORO NOT AVBL SYLVANIA CLEAR 70 69 97 CALM 29.92R CLAXTON FAIR 70 70 100 CALM 29.91S THOMSON CLEAR 68 68 100 CALM 29.96S AUGUSTA-BUSH PTCLDY 64 63 96 SE3 29.91R AUGUSTA-DANIEL CLEAR 75 64 68 NW6 29.92R SWAINSBORO FAIR 70 70 100 CALM 29.93R VIDALIA CLEAR 70 68 94 CALM 29.92S ALMA CLOUDY 74 69 85 NW3 29.91R WAYCROSS CLOUDY 76 74 93 CALM 29.91R JESUP FAIR 70 70 100 CALM 29.91R BRUNSWICK CLEAR 70 68 94 CALM 29.92R SAINT SIMONS CLEAR 70 67 90 CALM 29.91R $$ SCZ027-028-034-036>038-045-046-048>050-GAZ119-141-010300- ...LAKE AND SUPPLEMENTAL COASTAL OBSERVATIONS... STATION/POSITION TIME TEMP WIND PRES WAVE SWELL AIR SEA DIR/SP/G HT/PER HT/PER/DIR (UTC) (F) (DEG/KT/KT) (MB) (FT/S) (FT/S/D) UPR LAKE MARION NOT AVBL WINYAH BAY 0100 70 300/ 2 1011.0S LAKE MURRAY 0100 72 CALM / 1 1012.2R ACE BASIN NERRS 0100 69 CALM 1012.0S FORT PULASKI 0200 72 230/ 2/ 3 1012.8R SAPELO ISLAND NOT AVBL $$ ANZ835-935-AMZ111-154-330-350-352-354-374-450-454-472-010300- ...C-MAN AND BUOY OBSERVATIONS... STATION/POSITION TIME TEMP WIND PRES WAVE SWELL AIR SEA DIR/SP/G HT/PER HT/PER/DIR (UTC) (F) (DEG/KT/KT) (MB) (FT/S) (FT/S/D) FOLLY BEACH CMAN 0100 72 260/ 3/ 3 1012.5R BUOY 41004 0200 77 81 30/ 8/ 10 1011.4R 4/ 6 3/ 6 BUOY 41008 0200 77 79 70/ 8/ 12 1012.4R 3/ 7 3/ 80/ 7 5E ST. MARYS GA 0200 79 N/A 3/ 5 FRYING PAN BUOY NOT AVBL BUOY 41025 0200 72 360/ 16/ 17 1010.7R 4/ 6 2/ 70/ 8 CAPE LOOKOUT NC 0100 72 20/ 10/ 13 1011.2R BUOY 41002 0142 78 80 80/ 10/ 12 1008.3 3/ 7 3/ 70/ 7 BUOY 41010 0200 80 84 330/ 8/ 10 1010.7R 3/ 9 2/100/ 9 BUOY 41012 NOT AVBL ST AUGUSTINE FL 0200 77 10/ 13/ 15 1012.4R CAPERS NEARSHORE 0100 73 CALM / 2 N/A FRIPP NEARSHORE NOT AVBL $$

USA.gov is the U.S. government's official web portal to all federal, state and local government web resources and services.